DW9688 Weather Reports


Display with metric or nautical units.
time (UTC)temp
F
wind
direction
speed
MPH
gust
MPH
rain 1hr
in
rain 24hr
in
rain mn
in
humidity
%
barometer
mb
20260510090802 64 305 6.0 11.0 0.00 0.00 0.00 55 1008.2
20260510090302 63 355 5.0 9.0 0.00 0.00 0.00 55 1008.0
20260510085802 63 320 4.0 8.0 0.00 0.00 0.00 55 1008.1
20260510084802 63 293 4.0 7.0 0.00 0.00 0.00 57 1008.1
20260510084300 63 305 5.0 9.0 0.00 0.00 0.00 58 1008.2
20260510083801 63 309 5.0 9.0 0.00 0.00 0.00 58 1008.2
20260510083303 62 311 3.0 8.0 0.00 0.00 0.00 59 1008.2
20260510082801 62 328 3.0 7.0 0.00 0.00 0.00 59 1008.2
20260510082301 62 8 4.0 9.0 0.00 0.00 0.00 60 1008.1
20260510081801 61 322 4.0 9.0 0.00 0.00 0.00 62 1008.1
20260510081258 61 326 2.0 7.0 0.00 0.00 0.00 63 1008.1
20260510080757 61 39 3.0 5.0 0.00 0.00 0.00 62 1008.1
20260510080253 60 265 3.0 5.0 0.00 0.00 0.00 62 1008.1
20260510075753 60 234 3.0 4.0 0.00 0.00 0.00 63 1008.1
20260510075253 60 264 3.0 5.0 0.00 0.00 0.00 63 1008.1
20260510074752 60 261 4.0 5.0 0.00 0.00 0.00 63 1008.1
20260510074236 59 252 4.0 6.0 0.00 0.00 0.00 64 1008.0
20260510073731 59 277 4.0 6.0 0.00 0.00 0.00 64 1008.0
20260510073233 59 279 3.0 6.0 0.00 0.00 0.00 64 1008.0
20260510072730 59 263 3.0 4.0 0.00 0.00 0.00 67 1008.0
20260510072230 59 317 3.0 5.0 0.00 0.00 0.00 66 1008.0
20260510071731 59 303 3.0 7.0 0.00 0.00 0.00 67 1008.0
20260510071231 59 294 3.0 7.0 0.00 0.00 0.00 68 1008.0
20260510070729 59 302 2.0 5.0 0.00 0.00 0.00 68 1007.9
20260510070229 59 267 0.0 3.0 0.00 0.00 0.00 68 1007.9
20260510065729 59 195 0.0 1.0 0.00 0.00 0.00 64 1007.9
20260510065246 59 195 1.0 1.0 0.00 0.00 0.00 63 1007.9
20260510064229 59 195 1.0 3.0 0.00 0.00 0.00 65 1007.9
20260510063729 59 195 1.0 3.0 0.00 0.00 0.00 65 1007.9
20260510063245 59 241 1.0 2.0 0.00 0.00 0.00 65 1007.8
20260510062730 59 241 1.0 2.0 0.00 0.00 0.00 66 1007.8
20260510062231 58 191 1.0 4.0 0.00 0.00 0.00 67 1007.6
20260510061730 58 184 2.0 5.0 0.00 0.00 0.00 67 1007.6
20260510060231 58 196 2.0 4.0 0.00 0.00 0.00 68 1007.8
20260510055731 58 192 2.0 4.0 0.00 0.00 0.00 70 1007.6
20260510055231 58 192 2.0 4.0 0.00 0.00 0.00 71 1007.5
20260510054730 58 167 3.0 6.0 0.00 0.00 0.00 71 1007.5
20260510053730 57 153 3.0 5.0 0.00 0.00 0.00 73 1007.4
20260510052745 56 148 2.0 5.0 0.00 0.00 0.00 75 1007.4
20260510051729 55 145 1.0 2.0 0.00 0.00 0.00 80 1007.2
20260510051230 54 188 2.0 4.0 0.00 0.00 0.00 80 1007.0
20260510050730 54 209 2.0 4.0 0.00 0.00 0.00 80 1007.0
20260510050245 53 228 1.0 3.0 0.00 0.00 0.00 81 1006.9
20260510045728 53 210 1.0 3.0 0.00 0.00 0.00 82 1006.9
20260510044728 53 174 1.0 3.0 0.00 0.00 0.00 82 1007.0
20260510044228 53 189 2.0 3.0 0.00 0.00 0.00 82 1007.1
20260510043231 52 175 3.0 5.0 0.00 0.00 0.00 82 1007.0
20260510042730 52 173 3.0 5.0 0.00 0.00 0.00 83 1007.1
20260510042230 52 161 2.0 5.0 0.00 0.00 0.00 82 1007.1
20260510041730 52 171 1.0 3.0 0.00 0.00 0.00 81 1007.1
20260510041232 52 201 1.0 3.0 0.00 0.00 0.00 81 1007.1
20260510040231 53 265 1.0 2.0 0.00 0.00 0.00 80 1007.2
20260510035731 53 265 1.0 2.0 0.00 0.00 0.00 80 1007.3
20260510035229 53 274 2.0 4.0 0.00 0.00 0.00 79 1007.3
20260510034732 53 286 3.0 6.0 0.00 0.00 0.00 79 1007.3
20260510034231 53 249 3.0 6.0 0.00 0.00 0.00 78 1007.3
20260510033730 54 232 2.0 4.0 0.00 0.00 0.00 76 1007.4
20260510033229 55 247 2.0 4.0 0.00 0.00 0.00 75 1007.4
20260510032729 55 230 2.0 4.0 0.00 0.00 0.00 74 1007.4
20260510032228 55 245 2.0 4.0 0.00 0.00 0.00 73 1007.4
20260510031730 56 165 3.0 5.0 0.00 0.00 0.00 72 1007.5
20260510031233 56 178 5.0 14.0 0.00 0.00 0.00 71 1007.8
20260510030743 57 196 10.0 19.0 0.00 0.00 0.00 70 1007.6
20260510030232 58 105 11.0 19.0 0.00 0.00 0.00 69 1007.8
20260510025729 58 118 11.0 16.0 0.00 0.00 0.00 67 1007.9
20260510025229 58 107 12.0 16.0 0.00 0.00 0.00 67 1007.8
20260510024729 58 103 13.0 15.0 0.00 0.00 0.00 67 1007.8
20260510024230 58 105 13.0 16.0 0.00 0.00 0.00 69 1007.8
20260510023729 58 97 13.0 16.0 0.00 0.00 0.00 69 1007.8
20260510023229 58 99 12.0 14.0 0.00 0.00 0.00 69 1007.9
20260510022729 58 99 12.0 18.0 0.00 0.00 0.00 70 1008.0
20260510022230 57 107 12.0 18.0 0.00 0.00 0.00 71 1008.0
20260510021728 57 109 11.0 15.0 0.00 0.00 0.00 72 1008.0
20260510021228 57 111 11.0 13.0 0.00 0.00 0.00 74 1007.9
20260510020729 57 109 10.0 14.0 0.00 0.00 0.00 73 1008.0
20260510020230 57 104 10.0 14.0 0.00 0.00 0.00 73 1008.1
20260510015228 57 98 12.0 14.0 0.00 0.00 0.00 76 1008.2
20260510014729 58 92 12.0 14.0 0.00 0.00 0.00 76 1008.2
20260510014228 58 108 12.0 15.0 0.00 0.00 0.00 75 1008.2
20260510013726 58 106 13.0 15.0 0.00 0.00 0.00 73 1008.3
20260510012219 58 95 14.0 18.0 0.00 0.00 0.00 75 1008.4
20260510011212 58 99 12.0 14.0 0.00 0.00 0.00 79 1008.4
20260510010713 58 103 11.0 13.0 0.00 0.00 0.00 77 1008.5
20260510005708 57 128 12.0 14.0 0.00 0.00 0.00 76 1008.5
20260510004705 57 122 7.0 13.0 0.00 0.00 0.00 76 1008.5
20260510004205 57 143 5.0 9.0 0.00 0.00 0.00 76 1008.5
20260510003703 57 171 5.0 8.0 0.00 0.00 0.00 76 1008.6
20260510002704 57 159 6.0 9.0 0.00 0.00 0.00 75 1008.7
20260510002203 57 163 5.0 9.0 0.00 0.00 0.00 75 1008.7
20260510001702 57 128 4.0 8.0 0.00 0.00 0.00 75 1008.8
20260510001202 58 195 4.0 5.0 0.00 0.00 0.00 74 1008.9
20260510000700 58 194 4.0 5.0 0.00 0.00 0.00 74 1008.9
20260510000200 58 195 4.0 6.0 0.00 0.00 0.00 73 1009.0
20260509235701 58 174 3.0 6.0 0.00 0.00 0.00 73 1009.1
20260509235218 58 145 2.0 5.0 0.00 0.00 0.00 72 1009.1
20260509234701 59 158 1.0 4.0 0.00 0.00 0.00 72 1009.2
20260509234201 59 181 2.0 3.0 0.00 0.00 0.00 72 1009.2
20260509232202 59 145 5.0 11.0 0.00 0.00 0.00 73 1009.4
20260509231702 59 103 1.0 5.0 0.00 0.00 0.00 72 1009.4
20260509231203 59 115 1.0 2.0 0.00 0.00 0.00 72 1009.4
20260509230201 59 84 1.0 2.0 0.00 0.00 0.00 73 1009.3
20260509225703 59 84 1.0 2.0 0.00 0.00 0.00 73 1009.4
20260509225204 59 110 1.0 4.0 0.00 0.00 0.00 72 1009.4
20260509224702 59 110 2.0 4.0 0.00 0.00 0.00 72 1009.5
20260509223204 60 113 1.0 4.0 0.00 0.00 0.00 79 1009.5
20260509222702 60 113 2.0 4.0 0.00 0.00 0.00 76 1009.5
20260509221702 60 113 4.0 5.0 0.00 0.00 0.00 76 1009.7
20260509221218 60 113 4.0 5.0 0.00 0.00 0.00 76 1009.5
20260509220703 60 111 5.0 6.0 0.00 0.00 0.00 76 1009.5
20260509220517 60 101 5.0 7.0 0.00 0.00 0.00 76 1009.7
20260509215715 60 106 6.0 7.0 0.00 0.00 0.00 76 1009.7
20260509215202 60 101 6.0 8.0 0.00 0.00 0.00 76 1009.7
20260509214702 60 107 5.0 8.0 0.00 0.00 0.00 76 1009.9
20260509214202 60 118 4.0 6.0 0.00 0.00 0.00 74 1009.9
20260509213700 61 132 2.0 5.0 0.00 0.00 0.00 71 1010.0
20260509213202 61 97 3.0 5.0 0.00 0.00 0.00 71 1010.0
20260509212701 61 97 4.0 5.0 0.00 0.00 0.00 70 1010.1
20260509212156 61 129 3.0 5.0 0.00 0.00 0.00 71 1010.2
20260509211653 61 148 3.0 6.0 0.00 0.00 0.00 70 1010.3
20260509210629 62 118 3.0 6.0 0.00 0.00 0.00 67 1010.3
20260509210131 62 132 2.0 4.0 0.00 0.00 0.00 65 1010.4
20260509205629 63 114 2.0 4.0 0.00 0.00 0.00 63 1010.4
20260509205129 63 114 1.0 4.0 0.00 0.00 0.00 60 1010.5
20260509204629 64 57 1.0 2.0 0.00 0.00 0.00 59 1010.5
20260509203631 65 38 1.0 3.0 0.00 0.00 0.00 56 1010.6
20260509203132 65 278 1.0 3.0 0.00 0.00 0.00 55 1010.6
20260509202629 65 278 1.0 3.0 0.00 0.00 0.00 54 1010.6
20260509202129 66 281 2.0 4.0 0.00 0.00 0.00 53 1010.7
20260509201615 66 282 2.0 4.0 0.00 0.00 0.00 52 1010.6
20260509200606 66 282 3.0 6.0 0.00 0.00 0.00 51 1010.6
20260509200105 66 295 4.0 7.0 0.00 0.00 0.00 50 1010.6
20260509195605 66 278 5.0 7.0 0.00 0.00 0.00 51 1010.7
20260509195103 66 269 4.0 6.0 0.00 0.00 0.00 51 1010.7
20260509194605 66 291 4.0 6.0 0.00 0.00 0.00 51 1010.7
20260509194101 67 278 3.0 5.0 0.00 0.00 0.00 50 1010.7
20260509193601 67 286 3.0 5.0 0.00 0.00 0.00 50 1010.7
20260509193101 67 278 2.0 5.0 0.00 0.00 0.00 50 1010.6
20260509192603 67 298 2.0 4.0 0.00 0.00 0.00 49 1010.8
20260509192104 68 308 1.0 4.0 0.00 0.00 0.00 48 1010.8
20260509191600 68 13 1.0 3.0 0.00 0.00 0.00 47 1010.8
20260509191103 68 13 1.0 3.0 0.00 0.00 0.00 47 1010.8
20260509190604 68 309 1.0 2.0 0.00 0.00 0.00 47 1010.8
20260509184602 68 303 5.0 9.0 0.00 0.00 0.00 47 1010.9
20260509184132 68 298 6.0 9.0 0.00 0.00 0.00 46 1010.8
20260509183600 68 264 4.0 8.0 0.00 0.00 0.00 47 1010.8
20260509183103 69 274 3.0 7.0 0.00 0.00 0.00 47 1010.8
20260509182601 69 218 4.0 8.0 0.00 0.00 0.00 46 1010.8
20260509181602 69 254 4.0 8.0 0.00 0.00 0.00 46 1010.9
20260509181103 69 214 3.0 9.0 0.00 0.00 0.00 45 1010.8
20260509180602 70 32 3.0 9.0 0.00 0.00 0.00 47 1010.8
20260509175602 70 308 7.0 13.0 0.00 0.00 0.00 45 1010.8
20260509174602 70 355 7.0 14.0 0.00 0.00 0.00 44 1010.7
20260509173603 71 350 5.0 10.0 0.00 0.00 0.00 43 1010.7
20260509173101 71 335 6.0 13.0 0.00 0.00 0.00 42 1010.7
20260509172600 71 9 8.0 14.0 0.00 0.00 0.00 42 1010.7
20260509172100 71 11 10.0 18.0 0.00 0.00 0.00 41 1010.7
20260509171604 71 9 8.0 18.0 0.00 0.00 0.00 41 1010.6
20260509171103 72 335 6.0 11.0 0.00 0.00 0.00 42 1010.8
20260509165603 72 334 6.0 11.0 0.00 0.00 0.00 42 1010.8
20260509165103 72 355 5.0 9.0 0.00 0.00 0.00 41 1010.9
20260509164602 72 355 5.0 8.0 0.00 0.00 0.00 40 1010.8
20260509164103 72 350 5.0 10.0 0.00 0.00 0.00 40 1010.8
20260509163103 72 0 4.0 9.0 0.00 0.00 0.00 38 1011.0
20260509162602 72 7 3.0 6.0 0.00 0.00 0.00 38 1011.1
20260509161604 72 297 3.0 7.0 0.00 0.00 0.00 36 1011.2
20260509161104 73 17 4.0 8.0 0.00 0.00 0.00 36 1011.2
20260509160602 73 308 5.0 8.0 0.00 0.00 0.00 36 1011.3
20260509155602 73 27 5.0 10.0 0.00 0.00 0.00 37 1011.6
20260509155104 73 32 6.0 10.0 0.00 0.00 0.00 37 1011.4
20260509154102 73 331 3.0 10.0 0.00 0.00 0.00 36 1011.3
20260509153103 73 350 4.0 7.0 0.00 0.00 0.00 36 1011.6
20260509152103 73 350 5.0 9.0 0.00 0.00 0.00 35 1011.7
20260509151603 73 3 6.0 10.0 0.00 0.00 0.00 35 1011.7
20260509151104 73 296 8.0 15.0 0.00 0.00 0.00 34 1011.7
20260509150602 73 314 7.0 15.0 0.00 0.00 0.00 35 1011.7
20260509145603 73 272 6.0 10.0 0.00 0.00 0.00 34 1011.7
20260509145103 73 271 6.0 12.0 0.00 0.00 0.00 34 1011.7
20260509144601 73 245 4.0 12.0 0.00 0.00 0.00 35 1011.8
20260509143601 73 281 4.0 9.0 0.00 0.00 0.00 36 1011.8
20260509143102 73 329 4.0 9.0 0.00 0.00 0.00 35 1011.8
20260509142602 73 3 4.0 9.0 0.00 0.00 0.00 37 1011.8
20260509142102 73 333 5.0 10.0 0.00 0.00 0.00 35 1011.9
20260509141601 73 335 6.0 10.0 0.00 0.00 0.00 35 1011.9
20260509141101 73 269 5.0 10.0 0.00 0.00 0.00 35 1011.8
20260509140602 73 303 3.0 8.0 0.00 0.00 0.00 35 1011.9
20260509134603 73 293 4.0 12.0 0.00 0.00 0.00 35 1012.3
20260509134101 73 299 2.0 8.0 0.00 0.00 0.00 37 1012.4
20260509133104 73 269 3.0 6.0 0.00 0.00 0.00 38 1012.6
20260509132602 72 8 4.0 8.0 0.00 0.00 0.00 38 1012.6
20260509132118 72 34 5.0 9.0 0.00 0.00 0.00 39 1012.6
20260509131615 72 18 5.0 9.0 0.00 0.00 0.00 37 1012.7
20260509131119 71 27 4.0 8.0 0.00 0.00 0.00 38 1012.7
20260509125600 71 53 5.0 8.0 0.00 0.00 0.00 41 1012.8
20260509125103 72 76 5.0 8.0 0.00 0.00 0.00 40 1012.9
20260509124600 73 124 4.0 7.0 0.00 0.00 0.00 38 1013.0
20260509124101 73 144 4.0 6.0 0.00 0.00 0.00 38 1013.1
20260509123601 72 159 5.0 8.0 0.00 0.00 0.00 39 1013.1
20260509123102 71 139 5.0 8.0 0.00 0.00 0.00 44 1013.0
20260509122601 70 171 4.0 8.0 0.00 0.00 0.00 42 1012.9
20260509122058 69 161 3.0 6.0 0.00 0.00 0.00 47 1012.9
20260509121559 69 163 2.0 5.0 0.00 0.00 0.00 43 1012.8
20260509121058 68 140 4.0 7.0 0.00 0.00 0.00 50 1012.8
20260509120554 68 149 5.0 8.0 0.00 0.00 0.00 57 1012.7
20260509115053 65 37 3.0 6.0 0.00 0.00 0.00 58 1012.8
20260509114538 65 62 5.0 11.0 0.00 0.00 0.00 59 1012.8
20260509114036 66 32 5.0 11.0 0.00 0.00 0.00 57 1013.0
20260509113534 68 99 2.0 9.0 0.00 0.00 0.00 54 1013.2
20260509113043 67 130 2.0 6.0 0.00 0.00 0.00 57 1013.1
20260509112531 66 138 4.0 6.0 0.00 0.00 0.00 59 1013.1
20260509112030 65 160 5.0 8.0 0.00 0.00 0.00 61 1013.2
20260509111530 66 106 6.0 9.0 0.00 0.00 0.00 65 1013.2
20260509110529 65 126 4.0 9.0 0.00 0.00 0.00 60 1013.3
20260509110029 64 159 4.0 7.0 0.00 0.00 0.00 66 1013.3
20260509105530 63 148 4.0 7.0 0.00 0.00 0.00 71 1013.2
20260509105104 62 143 4.0 6.0 0.00 0.00 0.00 69 1013.3
20260509104034 62 113 5.0 8.0 0.00 0.00 0.00 74 1013.5
20260509103534 62 91 6.0 7.0 0.00 0.00 0.00 60 1013.7
20260509103028 62 143 6.0 8.0 0.00 0.00 0.00 64 1013.8
20260509102528 62 132 6.0 8.0 0.00 0.00 0.00 65 1013.7
20260509102030 62 148 6.0 8.0 0.00 0.00 0.00 64 1013.7
20260509101530 62 143 7.0 8.0 0.00 0.00 0.00 65 1013.8
20260509100530 62 128 8.0 9.0 0.00 0.00 0.00 65 1013.9
20260509095528 62 132 7.0 8.0 0.00 0.00 0.00 67 1014.1
20260509095029 61 126 7.0 8.0 0.00 0.00 0.00 65 1014.1
20260509094529 61 131 7.0 8.0 0.00 0.00 0.00 69 1014.1
20260509094030 60 127 6.0 8.0 0.00 0.00 0.00 66 1014.0
20260509093529 60 125 5.0 6.0 0.00 0.00 0.00 70 1014.1
20260509093029 60 117 5.0 6.0 0.00 0.00 0.00 68 1014.0
20260509092528 59 122 4.0 6.0 0.00 0.00 0.00 73 1014.0